Location: San Antonio
(29.4240°N, 98.4930°W)
Time: 22:16:18
(UTC-05:00)

Courier 1B - Pass Details

Date: 18 July 2024
Orbit: 962 x 1208 km, 28.3° (Epoch: 17 April)

Event Time Altitude Azimuth Distance (km) Brightness Sun altitude
Rises 22:21:46 0° 261° (W) 3,733 11.1 -20.7°
Reaches altitude 10° 22:27:23 10° 224° (SW) 2,724 9.9 -21.6°
Maximum altitude 22:28:33 11° 213° (SSW) 2,678 9.7 -21.8°
Drops below altitude 10° 22:29:43 10° 203° (SSW) 2,705 9.6 -22.0°
Enters shadow 22:30:24 - 197° (SSW) 2,753 9.6 -22.1°
